loading
|
Showing default

OV1-5, 2122

Orbit data source: Space-Track

OV1-5, 2122 is a payload satellite owned by USAF OAR (US) in LEO that was launched on Wed, 30 Mar 1966 UTC via an ATLAS D launch vehicle from the Air Force Western Test Range (AFWTR). Payloads include a variety of satellites, spacecraft, and rockets equipped with specific instruments for various scientific and technological missions. These include communications satellites like Starlink; space stations such as the ISS; scientific satellites like the Hubble; Earth observation satellites from companies like Planet Labs, Umbra, and HawkEye 360; GPS; miniature CubeSats for education and research; and military/defense satellites.

Loading next visibility...
Loading greatness...
OV1-5 details
Identifier
2122, 1966-025B
Orbit
LEO
Last TLE update1 day ago
Origin
Flag of USUSAF OAR (US)
ManufacturerGD/Convair
MissionDefense Early Warn/Tech
Bus & MotorOV1, Unknown motor
Mass114 kg wet, 114 kg dry
Launch date (UTC)
1966-03-30 (59 years ago)
Launch vehicle
ATLAS D
Launch site
Air Force Western Test Range (AFWTR)
Object type
Payload
Rocket body
Debris
Shape & HBRDomed Cyl, 1.4 m
Radar Cross Section0.946 m², Medium (>0.1 m² and < 1m²)

Expand to show TLE details & history

TLE from 1 day ago
0 OV1-5
1  2122U 66025B   24276.28424553  .00000504  00000-0  29495-3 0  9991
2  2122 144.6335 156.5612 0047889 284.7263  74.8106 13.66051176920406
Epoch: 2024-10-02T06:49Z
Definitive object data (Epoch: 2024-10-02T06:49:18.813Z)
Latitude-0.00002°
Longitude42.74701°
Altitude1,003.686 km
Speed7.356 km/s
True Right ascension10h 26m 14s
True Declination0° 00' 00"
Sunlit
Object was in daylight at TLE epoch
Predictive object data (real-time)
Latitude-19.07764°
Longitude-160.00087°
Altitude1,010.566 km
Speed7.351 km/s
Apparent Right ascension20h 21m 07s
Apparent Declination-28° 57' 41"
Sunlit
Object is in full shadow
Predictive observer data (real-time)
Local Sidereal Time07:32:16
Azimuth313.772° NW
Elevation-75.147°
Doppler factor1
Orbital elements
Apogee1,052.165 km
Perigee981.338 km
Semi-major axis7,394.888 km
Eccentricity0.0047889
Inclination144.6335°
RAAN156.5612°
Arg. of periapsis284.7263°
True anomaly75.34102°
Mean anomaly74.8106°
Eccentric anomaly75.07573°
Mean motion3.41307 °/min
BSTAR0.00029495
Period105.48 mins
No data available

OV1-5 Visibility forecast

Observer location: 39.9160978°, -105.1181434

OV1-5 is not visible in the next 10 days
Span
Click to sort rows by Start time (UTC) header in descending order
Start Az.
Max El. time (UTC)
Max El. Az.
Max El.
End time (UTC)
End Az.